M8FSI-13 Weather Reports


time (UTC)temp
C
wind
direction
speed
KPH
gust
KPH
rain 1hr
cm
rain 24hr
cm
rain mn
cm
humidity
%
barometer
mb
20260507223520 9 45 4.8 8.0 0.00 0.00 0.00 84 1017.0
20260507222534 9 45 4.8 8.0 0.00 0.00 0.00 84 1017.1
20260507221518 9 23 3.2 6.4 0.00 0.00 0.00 84 1017.2
20260507220519 8 45 3.2 4.8 0.00 0.00 0.00 84 1017.2
20260507215533 8 45 3.2 4.8 0.00 0.00 0.00 83 1017.2
20260507214548 8 45 1.6 4.8 0.00 0.00 0.00 83 1017.2
20260507213555 8 45 4.8 8.0 0.00 0.00 0.00 83 1017.1
20260507212534 8 45 3.2 9.7 0.00 0.00 0.00 82 1017.3
20260507211518 8 0 1.6 3.2 0.00 0.00 0.00 82 1017.5
20260507210534 8 0.0 1.6 0.00 0.00 0.00 82 1017.5
20260507205658 9 0.0 1.6 0.00 0.00 0.00 81 1017.5
20260507204519 9 0.0 1.6 0.00 0.00 0.00 81 1017.5
20260507203533 10 0.0 1.6 0.00 0.00 0.00 80 1017.4
20260507202519 10 0.0 1.6 0.00 0.00 0.00 79 1017.3
20260507201520 10 45 1.6 3.2 0.00 0.00 0.00 78 1017.3
20260507200553 11 0.0 0.0 0.00 0.00 0.00 78 1017.2
20260507195541 11 180 1.6 3.2 0.00 0.00 0.00 76 1016.9
20260507194614 11 180 1.6 3.2 0.00 0.00 0.00 75 1016.7
20260507193533 11 135 1.6 1.6 0.00 0.00 0.00 74 1016.7
20260507192518 12 135 1.6 3.2 0.00 0.00 0.00 73 1016.5
20260507191518 12 113 3.2 6.4 0.00 0.00 0.00 72 1016.4
20260507190520 12 135 4.8 6.4 0.00 0.00 0.00 71 1016.4
20260507185520 12 113 4.8 8.0 0.00 0.00 0.00 69 1016.3
20260507184520 12 113 6.4 9.7 0.00 0.00 0.00 70 1016.2
20260507183520 12 135 4.8 8.0 0.00 0.00 0.00 67 1016.2
20260507182519 12 158 6.4 8.0 0.00 0.00 0.00 69 1016.2
20260507181534 13 158 6.4 9.7 0.00 0.00 0.00 68 1016.2
20260507180521 13 158 8.0 11.3 0.00 0.00 0.00 66 1016.1
20260507175520 13 113 6.4 9.7 0.00 0.00 0.00 65 1016.2
20260507174518 13 135 6.4 9.7 0.00 0.00 0.00 66 1016.2
20260507173534 13 135 6.4 9.7 0.00 0.00 0.00 63 1016.2
20260507172630 13 135 8.0 11.3 0.00 0.00 0.00 64 1016.3
20260507171534 13 158 6.4 9.7 0.00 0.00 0.00 64 1016.4
20260507170521 13 135 8.0 11.3 0.00 0.00 0.00 63 1016.4
20260507165519 14 158 8.0 12.9 0.00 0.00 0.00 64 1016.4
20260507164522 14 158 9.7 12.9 0.00 0.00 0.00 64 1016.4
20260507163521 13 158 8.0 12.9 0.00 0.00 0.00 65 1016.4
20260507162521 13 203 9.7 14.5 0.00 0.00 0.00 63 1016.4
20260507161535 14 158 6.4 16.1 0.00 0.00 0.00 63 1016.4
20260507160536 13 158 9.7 14.5 0.00 0.00 0.00 61 1016.4
20260507155520 13 203 8.0 16.1 0.00 0.00 0.00 64 1016.5
20260507154520 13 203 9.7 14.5 0.00 0.00 0.00 65 1016.6
20260507153535 13 203 8.0 12.9 0.00 0.00 0.00 66 1016.6
20260507152520 13 180 8.0 11.3 0.00 0.00 0.00 67 1016.6
20260507151540 13 203 11.3 14.5 0.00 0.00 0.00 67 1016.6
20260507150520 13 180 11.3 16.1 0.00 0.00 0.00 67 1016.7
20260507145525 13 225 12.9 19.3 0.00 0.00 0.00 67 1016.8
20260507144534 13 225 12.9 20.9 0.00 0.00 0.00 65 1016.7
20260507143519 13 225 11.3 16.1 0.00 0.00 0.00 66 1016.8
20260507142525 13 225 12.9 19.3 0.00 0.00 0.00 65 1016.8
20260507141520 13 225 11.3 17.7 0.00 0.00 0.00 64 1016.8
20260507140535 13 158 8.0 12.9 0.00 0.00 0.00 61 1016.8
20260507135519 13 158 8.0 14.5 0.00 0.00 0.00 63 1016.9
20260507134520 13 203 9.7 14.5 0.00 0.00 0.00 64 1016.9
20260507133520 13 158 9.7 17.7 0.00 0.00 0.00 66 1016.9
20260507132534 13 225 14.5 20.9 0.00 0.00 0.00 64 1016.9
20260507131520 13 225 16.1 25.7 0.00 0.00 0.00 65 1017.0
20260507130534 14 203 12.9 22.5 0.00 0.00 0.00 62 1017.1
20260507125519 14 203 14.5 25.7 0.00 0.00 0.00 64 1017.0
20260507124559 14 203 12.9 19.3 0.00 0.00 0.00 61 1017.1
20260507123520 13 158 12.9 20.9 0.00 0.00 0.00 63 1017.0
20260507122519 14 203 14.5 20.9 0.00 0.00 0.00 63 1016.9
20260507121539 13 158 16.1 22.5 0.00 0.00 0.00 66 1017.0
20260507120520 14 158 16.1 22.5 0.00 0.00 0.00 66 1017.0
20260507115535 14 158 17.7 24.1 0.00 0.00 0.00 63 1017.0
20260507114534 14 135 11.3 25.7 0.00 0.00 0.00 62 1016.9
20260507113540 14 113 9.7 19.3 0.00 0.00 0.00 58 1016.9
20260507112549 14 135 11.3 17.7 0.00 0.00 0.00 60 1016.9
20260507111600 14 113 14.5 24.1 0.00 0.00 0.00 59 1016.8
20260507110519 14 113 11.3 16.1 0.00 0.00 0.00 63 1017.0
20260507105519 14 113 11.3 17.7 0.00 0.00 0.00 61 1017.0
20260507104535 13 135 9.7 17.7 0.00 0.00 0.00 61 1017.0
20260507103534 13 113 12.9 20.9 0.00 0.00 0.00 63 1017.0
20260507102520 13 135 11.3 20.9 0.00 0.00 0.00 64 1017.2
20260507101519 13 135 9.7 19.3 0.00 0.00 0.00 64 1017.3
20260507100520 13 90 6.4 11.3 0.00 0.00 0.00 62 1017.2
20260507095540 13 113 11.3 19.3 0.00 0.00 0.00 65 1017.3
20260507094519 13 135 8.0 16.1 0.00 0.00 0.00 66 1017.3
20260507093535 13 90 9.7 16.1 0.00 0.00 0.00 62 1017.4
20260507092534 13 113 9.7 16.1 0.00 0.00 0.00 64 1017.2
20260507091540 13 135 8.0 16.1 0.00 0.00 0.00 66 1017.1
20260507090519 13 135 11.3 16.1 0.00 0.00 0.00 67 1017.1
20260507085549 13 135 9.7 14.5 0.00 0.00 0.00 68 1017.2
20260507084534 13 113 8.0 12.9 0.00 0.00 0.00 67 1017.3
20260507083541 12 135 8.0 12.9 0.00 0.00 0.00 70 1017.2
20260507082520 12 135 9.7 14.5 0.00 0.00 0.00 71 1017.1
20260507081519 12 113 6.4 11.3 0.00 0.00 0.00 70 1017.1
20260507080519 12 90 8.0 12.9 0.00 0.00 0.00 72 1017.0
20260507075519 12 135 6.4 14.5 0.00 0.00 0.00 72 1017.1
20260507074539 12 113 8.0 16.1 0.00 0.00 0.00 72 1016.9
20260507073519 12 113 9.7 16.1 0.00 0.00 0.00 73 1017.0
20260507072542 11 90 8.0 11.3 0.00 0.00 0.00 74 1016.8
20260507071519 11 90 9.7 14.5 0.00 0.00 0.00 75 1016.7
20260507070618 11 90 8.0 14.5 0.00 0.00 0.00 74 1016.7
20260507065520 11 90 6.4 11.3 0.00 0.00 0.00 76 1016.7
20260507064519 11 90 8.0 9.7 0.00 0.00 0.00 76 1016.7
20260507063534 10 90 4.8 8.0 0.00 0.00 0.00 78 1016.6
20260507062533 10 90 4.8 6.4 0.00 0.00 0.00 78 1016.6
20260507061539 10 68 3.2 6.4 0.00 0.00 0.00 80 1016.5
20260507060548 10 68 1.6 4.8 0.00 0.00 0.00 81 1016.6
20260507055533 9 68 1.6 4.8 0.00 0.00 0.00 81 1016.4
20260507054544 8 0.0 1.6 0.00 0.00 0.00 82 1016.4
20260507053519 8 68 1.6 1.6 0.00 0.00 0.00 83 1016.4
20260507052541 7 0.0 1.6 0.00 0.00 0.00 85 1016.3
20260507051520 7 90 1.6 3.2 0.00 0.00 0.00 85 1016.3
20260507050518 7 0.0 1.6 0.00 0.00 0.00 87 1016.2
20260507045518 6 0.0 1.6 0.00 0.00 0.00 87 1016.1
20260507044520 6 0.0 1.6 0.00 0.00 0.00 87 1016.2
20260507043540 6 0.0 0.0 0.00 0.00 0.00 86 1016.1
20260507042518 6 0.0 1.6 0.00 0.00 0.00 86 1016.1
20260507041519 6 0.0 1.6 0.00 0.00 0.00 86 1016.1
20260507040520 6 0.0 1.6 0.00 0.00 0.00 85 1016.1
20260507035558 6 0.0 1.6 0.00 0.00 0.00 85 1016.1
20260507034518 6 0.0 1.6 0.00 0.00 0.00 85 1016.1
20260507033535 6 0.0 1.6 0.00 0.00 0.00 85 1016.1
20260507032520 6 0.0 1.6 0.00 0.00 0.00 84 1016.0
20260507031614 6 0.0 1.6 0.00 0.00 0.00 84 1016.0
20260507030554 6 0.0 1.6 0.00 0.00 0.00 84 1016.0
20260507025533 6 0.0 1.6 0.00 0.00 0.00 84 1015.9
20260507024538 6 0.0 3.2 0.00 0.00 0.00 84 1015.9
20260507023548 6 0.0 1.6 0.00 0.00 0.00 85 1015.9
20260507022520 6 0.0 1.6 0.00 0.00 0.00 84 1015.8
20260507021520 7 0.0 1.6 0.00 0.00 0.00 85 1015.8
20260507020520 7 0.0 1.6 0.00 0.00 0.00 84 1015.7
20260507015549 7 0.0 1.6 0.00 0.00 0.00 85 1015.7
20260507014520 7 0.0 1.6 0.00 0.00 0.00 84 1015.6
20260507013519 7 0.0 1.6 0.00 0.00 0.00 84 1015.7
20260507012557 7 0.0 0.0 0.00 0.00 0.00 84 1015.7
20260507011518 7 0.0 0.0 0.00 0.00 0.00 83 1015.8
20260507010540 7 0.0 0.0 0.00 0.00 0.00 82 1015.8
20260507005518 7 0.0 1.6 0.00 0.00 0.00 82 1015.8
20260507004535 7 0.0 1.6 0.00 0.00 0.00 82 1015.7
20260507003519 7 0.0 1.6 0.00 0.00 0.00 81 1015.7
20260507002535 7 0.0 1.6 0.00 0.00 0.00 81 1015.7
20260507001539 8 0.0 1.6 0.00 0.00 0.00 80 1015.8
20260507000518 8 0.0 1.6 0.00 0.00 0.00 80 1015.9
20260506235518 8 0.0 1.6 0.00 0.00 0.00 79 1015.9
20260506234523 8 0.0 1.6 0.00 0.00 0.00 78 1015.8
20260506233518 9 0.0 1.6 0.00 0.00 0.00 77 1015.8
20260506232533 10 0.0 1.6 0.00 0.00 0.00 75 1015.8
20260506231534 10 0.0 1.6 0.00 0.00 0.00 74 1015.7
20260506230519 10 0.0 1.6 0.00 0.00 0.00 72 1015.6
20260506225553 11 45 1.6 4.8 0.00 0.00 0.00 72 1015.6
20260506224533 11 68 1.6 3.2 0.00 0.00 0.00 71 1015.7